TimeCDT,TemperatureF,Dew PointF,Humidity,Sea Level PressureIn,VisibilityMPH,Wind Direction,Wind SpeedMPH,Gust SpeedMPH,PrecipitationIn,Events,Conditions,WindDirDegrees,DateUTC
12:51 AM,82.0,75.0,79,29.85,10.0,SE,15.0,20.7,N/A,,Overcast,140,2013-09-28 05:51:00
1:51 AM,82.0,75.9,82,29.84,10.0,SSE,15.0,-,0.00,Rain,Light Rain,160,2013-09-28 06:51:00
2:51 AM,81.0,75.9,85,29.84,10.0,SE,12.7,-,0.00,,Mostly Cloudy,140,2013-09-28 07:51:00
3:11 AM,80.6,75.2,84,29.90,8.0,SE,12.7,-,N/A,,Overcast,140,2013-09-28 08:11:00
3:47 AM,80.6,75.2,84,29.89,8.0,SSE,12.7,-,N/A,,Overcast,160,2013-09-28 08:47:00
3:51 AM,81.0,75.9,85,29.84,8.0,SSE,13.8,20.7,N/A,,Overcast,150,2013-09-28 08:51:00
4:47 AM,80.6,75.2,84,29.89,8.0,South,11.5,-,N/A,,Overcast,170,2013-09-28 09:47:00
4:51 AM,81.0,75.0,82,29.83,8.0,SSE,16.1,19.6,N/A,,Overcast,160,2013-09-28 09:51:00
5:51 AM,80.1,75.0,85,29.84,9.0,SSE,10.4,-,N/A,,Mostly Cloudy,160,2013-09-28 10:51:00
6:51 AM,80.1,75.9,87,29.86,8.0,SSE,11.5,19.6,N/A,,Overcast,160,2013-09-28 11:51:00
7:51 AM,80.1,75.0,85,29.86,8.0,SSE,13.8,-,N/A,,Mostly Cloudy,160,2013-09-28 12:51:00
8:14 AM,80.6,75.2,84,29.93,9.0,SSE,10.4,-,N/A,,Mostly Cloudy,160,2013-09-28 13:14:00
8:51 AM,82.0,75.9,82,29.88,10.0,SSE,12.7,-,N/A,,Mostly Cloudy,160,2013-09-28 13:51:00
9:13 AM,82.4,75.2,79,29.95,10.0,SSE,11.5,-,N/A,,Mostly Cloudy,160,2013-09-28 14:13:00
9:51 AM,82.9,75.0,77,29.90,8.0,South,13.8,23.0,N/A,,Mostly Cloudy,180,2013-09-28 14:51:00
10:32 AM,84.2,75.2,74,29.96,10.0,South,13.8,20.7,N/A,,Mostly Cloudy,180,2013-09-28 15:32:00
10:51 AM,86.0,75.0,70,29.91,10.0,South,12.7,-,N/A,,Mostly Cloudy,170,2013-09-28 15:51:00
11:51 AM,88.0,73.9,63,29.91,10.0,South,12.7,-,N/A,,Mostly Cloudy,180,2013-09-28 16:51:00
12:51 PM,89.1,72.0,57,29.89,10.0,SSE,12.7,-,0.00,,Mostly Cloudy,150,2013-09-28 17:51:00
1:30 PM,89.6,71.6,55,29.95,10.0,South,19.6,31.1,N/A,Thunderstorm,Thunderstorm,190,2013-09-28 18:30:00
1:44 PM,80.6,73.4,79,29.95,7.0,WSW,16.1,28.8,0.01,Rain-Thunderstorm,Thunderstorms and Rain,240,2013-09-28 18:44:00
1:51 PM,79.0,73.9,84,29.89,10.0,WSW,6.9,-,0.06,Rain-Thunderstorm,Thunderstorms and Rain,250,2013-09-28 18:51:00
2:15 PM,82.4,75.2,79,29.93,10.0,Calm,Calm,-,0.01,,Mostly Cloudy,0,2013-09-28 19:15:00
2:51 PM,88.0,77.0,70,29.85,10.0,SSE,6.9,-,0.01,,Mostly Cloudy,160,2013-09-28 19:51:00
3:51 PM,88.0,75.0,65,29.84,10.0,SE,3.5,-,N/A,,Overcast,140,2013-09-28 20:51:00
4:16 PM,84.2,75.2,74,29.90,10.0,NW,12.7,16.1,N/A,,Overcast,320,2013-09-28 21:16:00
4:36 PM,82.4,75.2,79,29.90,10.0,NW,11.5,-,N/A,Thunderstorm,Thunderstorm,320,2013-09-28 21:36:00
4:51 PM,82.9,75.0,77,29.83,10.0,NNW,10.4,-,N/A,,Overcast,330,2013-09-28 21:51:00
5:51 PM,84.0,75.0,74,29.83,10.0,WNW,3.5,-,0.00,,Mostly Cloudy,300,2013-09-28 22:51:00
6:51 PM,86.0,75.0,70,29.85,10.0,Calm,Calm,-,N/A,,Mostly Cloudy,0,2013-09-28 23:51:00
7:51 PM,84.0,73.9,72,29.88,10.0,North,4.6,-,N/A,,Overcast,10,2013-09-29 00:51:00
8:51 PM,82.0,73.9,76,29.91,10.0,East,5.8,-,N/A,,Mostly Cloudy,80,2013-09-29 01:51:00
9:45 PM,80.6,75.2,84,29.97,10.0,East,10.4,-,N/A,,Overcast,90,2013-09-29 02:45:00
9:51 PM,80.1,75.0,85,29.92,10.0,ESE,13.8,-,N/A,,Overcast,110,2013-09-29 02:51:00
10:02 PM,78.8,73.4,83,29.98,10.0,East,9.2,-,N/A,,Overcast,100,2013-09-29 03:02:00
10:10 PM,78.8,73.4,83,29.99,10.0,East,11.5,-,N/A,,Overcast,100,2013-09-29 03:10:00
10:51 PM,78.1,73.0,84,29.92,10.0,ESE,6.9,-,N/A,,Overcast,110,2013-09-29 03:51:00
11:19 PM,78.8,73.4,83,29.97,10.0,SE,5.8,-,N/A,,Overcast,130,2013-09-29 04:19:00
11:49 PM,78.8,73.4,83,29.98,10.0,Calm,Calm,-,0.00,Rain,Light Rain,0,2013-09-29 04:49:00
11:51 PM,78.1,75.0,90,29.93,10.0,Calm,Calm,-,0.00,Rain,Light Rain,0,2013-09-29 04:51:00